Time,TemperatureF,DewpointF,PressureIn,WindDirection,WindDirectionDegrees,WindSpeedMPH,WindSpeedGustMPH,Humidity,HourlyPrecipIn,Conditions,Clouds,dailyrainin,SoftwareType,DateUTC
2013-10-28 00:03:00,44.4,29.2,29.54,South,169,0.0,0.0,55,0.00,,,0.00,Wunderground v.1.15,2013-10-28 05:03:00,
2013-10-28 00:08:00,44.2,29.0,29.54,South,169,0.0,0.0,55,0.00,,,0.00,Wunderground v.1.15,2013-10-28 05:08:00,
2013-10-28 00:14:00,44.3,29.1,29.54,South,169,0.0,0.0,55,0.00,,,0.00,Wunderground v.1.15,2013-10-28 05:14:00,
2013-10-28 00:19:00,44.4,29.2,29.54,South,169,0.0,0.0,55,0.00,,,0.00,Wunderground v.1.15,2013-10-28 05:19:00,
2013-10-28 00:25:00,44.4,29.2,29.54,South,169,0.0,2.0,55,0.00,,,0.00,Wunderground v.1.15,2013-10-28 05:25:00,
2013-10-28 00:30:00,44.3,29.1,29.54,South,169,0.0,0.0,55,0.00,,,0.00,Wunderground v.1.15,2013-10-28 05:30:00,
2013-10-28 00:36:00,44.0,29.3,29.54,South,169,0.0,0.0,56,0.00,,,0.00,Wunderground v.1.15,2013-10-28 05:36:00,
2013-10-28 00:42:00,43.8,29.1,29.54,South,169,0.0,0.0,56,0.00,,,0.00,Wunderground v.1.15,2013-10-28 05:42:00,
2013-10-28 00:47:00,43.6,28.9,29.54,South,169,0.0,0.0,56,0.00,,,0.00,Wunderground v.1.15,2013-10-28 05:47:00,
2013-10-28 00:53:00,43.4,29.2,29.55,South,169,0.0,0.0,57,0.00,,,0.00,Wunderground v.1.15,2013-10-28 05:53:00,
2013-10-28 00:58:00,43.3,-99.9,29.55,South,169,0.0,0.0,255,0.00,,,0.00,Wunderground v.1.15,2013-10-28 05:58:00,
2013-10-28 01:04:00,42.7,29.4,29.55,South,169,0.0,0.0,59,0.00,,,0.00,Wunderground v.1.15,2013-10-28 06:04:00,
2013-10-28 01:10:00,42.6,30.5,29.55,South,169,0.0,0.0,62,0.00,,,0.00,Wunderground v.1.15,2013-10-28 06:10:00,
2013-10-28 01:15:00,42.0,31.1,29.55,South,169,0.0,0.0,65,0.00,,,0.00,Wunderground v.1.15,2013-10-28 06:15:00,
2013-10-28 01:21:00,41.5,30.6,29.55,South,169,0.0,0.0,65,0.00,,,0.00,Wunderground v.1.15,2013-10-28 06:21:00,
2013-10-28 01:26:00,41.0,30.1,29.55,South,169,0.0,0.0,65,0.00,,,0.00,Wunderground v.1.15,2013-10-28 06:26:00,
2013-10-28 01:32:00,40.6,30.1,29.55,SSE,154,0.0,0.0,66,0.00,,,0.00,Wunderground v.1.15,2013-10-28 06:32:00,
2013-10-28 01:37:00,40.3,30.2,29.55,South,169,0.0,0.0,67,0.00,,,0.00,Wunderground v.1.15,2013-10-28 06:37:00,
2013-10-28 01:43:00,39.8,30.1,29.56,South,169,0.0,0.0,68,0.00,,,0.00,Wunderground v.1.15,2013-10-28 06:43:00,
2013-10-28 01:49:00,39.5,30.2,29.56,South,169,0.0,0.0,69,0.00,,,0.00,Wunderground v.1.15,2013-10-28 06:49:00,
2013-10-28 01:54:00,39.3,30.0,29.55,South,169,0.0,0.0,69,0.00,,,0.00,Wunderground v.1.15,2013-10-28 06:54:00,
2013-10-28 02:01:00,38.9,29.6,29.56,South,169,0.0,0.0,69,0.00,,,0.00,Wunderground v.1.15,2013-10-28 07:01:00,
2013-10-28 02:07:00,38.8,29.5,29.56,South,169,0.0,0.0,69,0.00,,,0.00,Wunderground v.1.15,2013-10-28 07:07:00,
2013-10-28 02:12:00,38.7,29.8,29.56,South,169,0.0,0.0,70,0.00,,,0.00,Wunderground v.1.15,2013-10-28 07:12:00,
2013-10-28 02:19:00,38.7,29.8,29.56,South,169,0.0,0.0,70,0.00,,,0.00,Wunderground v.1.15,2013-10-28 07:19:00,
2013-10-28 02:25:00,38.5,29.9,29.56,South,169,0.0,0.0,71,0.00,,,0.00,Wunderground v.1.15,2013-10-28 07:25:00,
2013-10-28 02:30:00,38.4,29.1,29.55,South,169,0.0,0.0,69,0.00,,,0.00,Wunderground v.1.15,2013-10-28 07:30:00,
2013-10-28 02:36:00,38.7,29.4,29.56,South,169,0.0,0.0,69,0.00,,,0.00,Wunderground v.1.15,2013-10-28 07:36:00,
2013-10-28 02:41:00,38.7,30.1,29.56,South,169,0.0,0.0,71,0.00,,,0.00,Wunderground v.1.15,2013-10-28 07:41:00,
2013-10-28 02:47:00,38.6,30.4,29.56,South,169,0.0,0.0,72,0.00,,,0.00,Wunderground v.1.15,2013-10-28 07:47:00,
2013-10-28 02:53:00,38.5,30.3,29.56,South,169,0.0,0.0,72,0.00,,,0.00,Wunderground v.1.15,2013-10-28 07:53:00,
2013-10-28 02:58:00,38.2,30.3,29.56,South,169,0.0,0.0,73,0.00,,,0.00,Wunderground v.1.15,2013-10-28 07:58:00,
2013-10-28 03:03:00,38.0,30.1,29.57,South,169,0.0,0.0,73,0.00,,,0.00,Wunderground v.1.15,2013-10-28 08:03:00,
2013-10-28 03:08:00,37.7,30.2,29.57,South,169,0.0,0.0,74,0.00,,,0.00,Wunderground v.1.15,2013-10-28 08:08:00,
2013-10-28 03:14:00,37.5,29.6,29.57,South,169,0.0,0.0,73,0.00,,,0.00,Wunderground v.1.15,2013-10-28 08:14:00,
2013-10-28 03:20:00,37.1,29.2,29.57,South,169,0.0,0.0,73,0.00,,,0.00,Wunderground v.1.15,2013-10-28 08:20:00,
2013-10-28 03:25:00,37.1,29.6,29.57,South,169,0.0,0.0,74,0.00,,,0.00,Wunderground v.1.15,2013-10-28 08:25:00,
2013-10-28 03:31:00,37.2,29.7,29.57,South,169,0.0,0.0,74,0.00,,,0.00,Wunderground v.1.15,2013-10-28 08:31:00,
2013-10-28 03:36:00,37.2,29.7,29.57,South,169,0.0,0.0,74,0.00,,,0.00,Wunderground v.1.15,2013-10-28 08:36:00,
2013-10-28 03:42:00,37.2,29.3,29.57,South,169,0.0,0.0,73,0.00,,,0.00,Wunderground v.1.15,2013-10-28 08:42:00,
2013-10-28 03:48:00,37.0,29.5,29.57,South,169,0.0,0.0,74,0.00,,,0.00,Wunderground v.1.15,2013-10-28 08:48:00,
2013-10-28 03:53:00,36.8,29.0,29.57,South,169,0.0,0.0,73,0.00,,,0.00,Wunderground v.1.15,2013-10-28 08:53:00,
2013-10-28 03:59:00,36.7,28.9,29.57,South,169,0.0,0.0,73,0.00,,,0.00,Wunderground v.1.15,2013-10-28 08:59:00,
2013-10-28 04:04:00,36.5,29.0,29.57,South,169,0.0,0.0,74,0.00,,,0.00,Wunderground v.1.15,2013-10-28 09:04:00,
2013-10-28 04:10:00,36.4,28.9,29.57,South,169,0.0,0.0,74,0.00,,,0.00,Wunderground v.1.15,2013-10-28 09:10:00,
2013-10-28 04:15:00,36.3,28.8,29.57,South,169,0.0,0.0,74,0.00,,,0.00,Wunderground v.1.15,2013-10-28 09:15:00,
2013-10-28 04:21:00,36.4,28.9,29.58,South,169,0.0,0.0,74,0.00,,,0.00,Wunderground v.1.15,2013-10-28 09:21:00,
2013-10-28 04:27:00,36.3,28.8,29.57,South,169,0.0,0.0,74,0.00,,,0.00,Wunderground v.1.15,2013-10-28 09:27:00,
2013-10-28 04:32:00,36.4,28.6,29.58,South,169,0.0,4.0,73,0.00,,,0.00,Wunderground v.1.15,2013-10-28 09:32:00,
2013-10-28 04:38:00,36.6,28.8,29.58,South,169,0.0,4.0,73,0.00,,,0.00,Wunderground v.1.15,2013-10-28 09:38:00,
2013-10-28 04:43:00,36.8,29.0,29.58,South,169,0.0,1.0,73,0.00,,,0.00,Wunderground v.1.15,2013-10-28 09:43:00,
2013-10-28 04:49:00,36.9,29.1,29.58,South,169,0.0,1.0,73,0.00,,,0.00,Wunderground v.1.15,2013-10-28 09:49:00,
2013-10-28 04:55:00,37.0,28.8,29.58,South,169,0.0,0.0,72,0.00,,,0.00,Wunderground v.1.15,2013-10-28 09:55:00,
2013-10-28 05:01:00,36.9,29.1,29.59,South,169,0.0,0.0,73,0.00,,,0.00,Wunderground v.1.15,2013-10-28 10:01:00,
2013-10-28 05:06:00,36.8,29.0,29.59,South,169,0.0,0.0,73,0.00,,,0.00,Wunderground v.1.15,2013-10-28 10:06:00,
2013-10-28 05:12:00,36.8,29.3,29.58,South,169,0.0,0.0,74,0.00,,,0.00,Wunderground v.1.15,2013-10-28 10:12:00,
2013-10-28 05:17:00,36.6,29.1,29.58,South,169,0.0,0.0,74,0.00,,,0.00,Wunderground v.1.15,2013-10-28 10:17:00,
2013-10-28 05:23:00,36.5,29.0,29.59,South,169,0.0,0.0,74,0.00,,,0.00,Wunderground v.1.15,2013-10-28 10:23:00,
2013-10-28 05:28:00,36.4,28.9,29.60,South,169,0.0,0.0,74,0.00,,,0.00,Wunderground v.1.15,2013-10-28 10:28:00,
2013-10-28 05:34:00,36.4,28.9,29.60,South,169,0.0,0.0,74,0.00,,,0.00,Wunderground v.1.15,2013-10-28 10:34:00,
2013-10-28 05:40:00,36.4,28.9,29.60,South,169,0.0,0.0,74,0.00,,,0.00,Wunderground v.1.15,2013-10-28 10:40:00,
2013-10-28 05:45:00,36.4,29.2,29.60,South,169,0.0,0.0,75,0.00,,,0.00,Wunderground v.1.15,2013-10-28 10:45:00,
2013-10-28 05:51:00,36.4,28.9,29.60,South,169,0.0,0.0,74,0.00,,,0.00,Wunderground v.1.15,2013-10-28 10:51:00,
2013-10-28 05:56:00,36.3,29.1,29.60,South,169,0.0,0.0,75,0.00,,,0.00,Wunderground v.1.15,2013-10-28 10:56:00,
2013-10-28 06:02:00,36.1,29.3,29.61,South,169,0.0,0.0,76,0.00,,,0.00,Wunderground v.1.15,2013-10-28 11:02:00,
2013-10-28 06:07:00,35.9,29.1,29.61,South,169,0.0,0.0,76,0.00,,,0.00,Wunderground v.1.15,2013-10-28 11:07:00,
2013-10-28 06:13:00,35.8,29.3,29.61,South,169,0.0,0.0,77,0.00,,,0.00,Wunderground v.1.15,2013-10-28 11:13:00,
2013-10-28 06:19:00,35.7,29.2,29.61,South,169,0.0,0.0,77,0.00,,,0.00,Wunderground v.1.15,2013-10-28 11:19:00,
2013-10-28 06:24:00,35.5,29.0,29.61,South,169,0.0,0.0,77,0.00,,,0.00,Wunderground v.1.15,2013-10-28 11:24:00,
2013-10-28 06:30:00,35.3,28.8,29.62,South,169,0.0,0.0,77,0.00,,,0.00,Wunderground v.1.15,2013-10-28 11:30:00,
2013-10-28 06:35:00,35.1,28.9,29.62,South,169,0.0,0.0,78,0.00,,,0.00,Wunderground v.1.15,2013-10-28 11:35:00,
2013-10-28 06:41:00,34.9,28.7,29.62,South,169,0.0,0.0,78,0.00,,,0.00,Wunderground v.1.15,2013-10-28 11:41:00,
2013-10-28 06:47:00,34.9,29.0,29.62,South,169,0.0,0.0,79,0.00,,,0.00,Wunderground v.1.15,2013-10-28 11:47:00,
2013-10-28 06:52:00,35.0,29.1,29.63,South,169,0.0,0.0,79,0.00,,,0.00,Wunderground v.1.15,2013-10-28 11:52:00,
2013-10-28 06:58:00,35.0,29.1,29.63,South,169,0.0,0.0,79,0.00,,,0.00,Wunderground v.1.15,2013-10-28 11:58:00,
2013-10-28 07:04:00,34.9,29.0,29.63,South,169,0.0,0.0,79,0.00,,,0.00,Wunderground v.1.15,2013-10-28 12:04:00,
2013-10-28 07:09:00,34.8,29.0,29.63,South,169,0.0,0.0,79,0.00,,,0.00,Wunderground v.1.15,2013-10-28 12:09:00,
2013-10-28 07:15:00,34.8,29.0,29.63,South,169,0.0,0.0,79,0.00,,,0.00,Wunderground v.1.15,2013-10-28 12:15:00,
2013-10-28 07:20:00,34.7,29.2,29.63,South,169,0.0,0.0,80,0.00,,,0.00,Wunderground v.1.15,2013-10-28 12:20:00,
2013-10-28 07:26:00,34.8,29.3,29.63,South,169,0.0,0.0,80,0.00,,,0.00,Wunderground v.1.15,2013-10-28 12:26:00,
2013-10-28 07:31:00,34.7,29.2,29.63,South,169,0.0,0.0,80,0.00,,,0.00,Wunderground v.1.15,2013-10-28 12:31:00,
2013-10-28 07:37:00,34.7,29.2,29.64,South,169,0.0,0.0,80,0.00,,,0.00,Wunderground v.1.15,2013-10-28 12:37:00,
2013-10-28 07:42:00,34.8,29.3,29.64,South,169,0.0,0.0,80,0.00,,,0.00,Wunderground v.1.15,2013-10-28 12:42:00,
2013-10-28 07:48:00,35.1,29.2,29.65,South,169,0.0,0.0,79,0.00,,,0.00,Wunderground v.1.15,2013-10-28 12:48:00,
2013-10-28 07:54:00,35.1,29.2,29.65,South,169,0.0,0.0,79,0.00,,,0.00,Wunderground v.1.15,2013-10-28 12:54:00,
2013-10-28 07:59:00,36.0,30.1,29.66,South,169,0.0,0.0,79,0.00,,,0.00,Wunderground v.1.15,2013-10-28 12:59:00,
2013-10-28 08:05:00,35.5,29.9,29.66,South,169,0.0,0.0,80,0.00,,,0.00,Wunderground v.1.15,2013-10-28 13:05:00,
2013-10-28 08:10:00,36.0,30.1,29.66,South,169,0.0,0.0,79,0.00,,,0.00,Wunderground v.1.15,2013-10-28 13:10:00,
2013-10-28 08:16:00,36.6,30.4,29.66,SE,146,0.0,0.0,78,0.00,,,0.00,Wunderground v.1.15,2013-10-28 13:16:00,
2013-10-28 08:21:00,36.9,30.7,29.67,South,169,0.0,0.0,78,0.00,,,0.00,Wunderground v.1.15,2013-10-28 13:21:00,
2013-10-28 08:27:00,37.5,30.9,29.66,South,169,0.0,0.0,77,0.00,,,0.00,Wunderground v.1.15,2013-10-28 13:27:00,
2013-10-28 08:32:00,38.1,31.2,29.67,South,169,0.0,0.0,76,0.00,,,0.00,Wunderground v.1.15,2013-10-28 13:32:00,
2013-10-28 08:38:00,38.6,31.4,29.67,South,169,0.0,1.0,75,0.00,,,0.00,Wunderground v.1.15,2013-10-28 13:38:00,
2013-10-28 08:44:00,-999.9,-99.9,29.67,South,169,0.0,2.0,74,0.00,,,0.00,Wunderground v.1.15,2013-10-28 13:44:00,
2013-10-28 08:49:00,40.8,31.8,29.68,SSE,162,1.0,5.0,70,0.00,,,0.00,Wunderground v.1.15,2013-10-28 13:49:00,
2013-10-28 08:55:00,42.3,32.1,29.68,SSE,158,2.0,4.0,67,0.00,,,0.00,Wunderground v.1.15,2013-10-28 13:55:00,
2013-10-28 09:01:00,43.5,32.5,29.68,SSE,158,1.0,1.0,65,0.00,,,0.00,Wunderground v.1.15,2013-10-28 14:01:00,
2013-10-28 09:06:00,44.5,32.7,29.68,SSE,165,0.0,2.0,63,0.00,,,0.00,Wunderground v.1.15,2013-10-28 14:06:00,
2013-10-28 09:12:00,45.5,32.8,29.68,SSE,165,0.0,0.0,61,0.00,,,0.00,Wunderground v.1.15,2013-10-28 14:12:00,
2013-10-28 09:17:00,46.5,33.4,29.68,South,172,0.0,2.0,60,0.00,,,0.00,Wunderground v.1.15,2013-10-28 14:17:00,
2013-10-28 09:23:00,47.2,33.2,29.68,South,172,0.0,0.0,58,0.00,,,0.00,Wunderground v.1.15,2013-10-28 14:23:00,
2013-10-28 09:28:00,48.0,33.5,29.69,South,172,0.0,0.0,57,0.00,,,0.00,Wunderground v.1.15,2013-10-28 14:28:00,
2013-10-28 09:34:00,48.6,34.0,29.69,South,172,0.0,0.0,57,0.00,,,0.00,Wunderground v.1.15,2013-10-28 14:34:00,
2013-10-28 09:40:00,49.2,33.7,29.69,South,173,0.0,0.0,55,0.00,,,0.00,Wunderground v.1.15,2013-10-28 14:40:00,
2013-10-28 09:45:00,49.8,34.3,29.69,South,173,0.0,0.0,55,0.00,,,0.00,Wunderground v.1.15,2013-10-28 14:45:00,
2013-10-28 09:51:00,51.0,34.5,29.69,South,173,0.0,0.0,53,0.00,,,0.00,Wunderground v.1.15,2013-10-28 14:51:00,
2013-10-28 09:56:00,51.2,34.6,29.69,South,173,0.0,0.0,53,0.00,,,0.00,Wunderground v.1.15,2013-10-28 14:56:00,
2013-10-28 10:02:00,51.9,34.8,29.69,South,173,0.0,0.0,52,0.00,,,0.00,Wunderground v.1.15,2013-10-28 15:02:00,
2013-10-28 10:08:00,52.6,35.0,29.69,South,173,0.0,0.0,51,0.00,,,0.00,Wunderground v.1.15,2013-10-28 15:08:00,
2013-10-28 10:13:00,53.3,35.6,29.69,South,173,0.0,0.0,51,0.00,,,0.00,Wunderground v.1.15,2013-10-28 15:13:00,
2013-10-28 10:19:00,54.1,35.9,29.70,South,173,0.0,0.0,50,0.00,,,0.00,Wunderground v.1.15,2013-10-28 15:19:00,
2013-10-28 10:24:00,55.0,36.7,29.69,South,173,0.0,0.0,50,0.00,,,0.00,Wunderground v.1.15,2013-10-28 15:24:00,
2013-10-28 10:30:00,55.8,36.9,29.69,South,173,0.0,0.0,49,0.00,,,0.00,Wunderground v.1.15,2013-10-28 15:30:00,
2013-10-28 10:36:00,56.2,36.2,29.70,South,173,0.0,0.0,47,0.00,,,0.00,Wunderground v.1.15,2013-10-28 15:36:00,
2013-10-28 10:41:00,56.5,36.0,29.70,South,173,0.0,0.0,46,0.00,,,0.00,Wunderground v.1.15,2013-10-28 15:41:00,
2013-10-28 10:47:00,56.9,36.3,29.70,South,173,0.0,0.0,46,0.00,,,0.00,Wunderground v.1.15,2013-10-28 15:47:00,
2013-10-28 10:52:00,57.5,36.9,29.70,South,173,0.0,0.0,46,0.00,,,0.00,Wunderground v.1.15,2013-10-28 15:52:00,
2013-10-28 10:58:00,58.2,37.5,29.70,South,173,0.0,0.0,46,0.00,,,0.00,Wunderground v.1.15,2013-10-28 15:58:00,
2013-10-28 11:04:00,59.0,37.1,29.70,South,173,0.0,0.0,44,0.00,,,0.00,Wunderground v.1.15,2013-10-28 16:04:00,
2013-10-28 11:09:00,59.8,39.0,29.70,South,173,0.0,2.0,46,0.00,,,0.00,Wunderground v.1.15,2013-10-28 16:09:00,
2013-10-28 11:15:00,-999.9,-99.9,29.70,South,173,0.0,0.0,44,0.00,,,0.00,Wunderground v.1.15,2013-10-28 16:15:00,
2013-10-28 11:21:00,60.7,39.2,29.70,South,173,0.0,0.0,45,0.00,,,0.00,Wunderground v.1.15,2013-10-28 16:21:00,
2013-10-28 11:26:00,61.5,-99.9,29.70,South,172,0.0,0.0,255,0.00,,,0.00,Wunderground v.1.15,2013-10-28 16:26:00,
2013-10-28 11:32:00,-999.9,-99.9,29.70,South,172,0.0,0.0,42,0.00,,,0.00,Wunderground v.1.15,2013-10-28 16:32:00,
2013-10-28 11:37:00,62.3,38.9,29.70,South,172,0.0,1.0,42,0.00,,,0.00,Wunderground v.1.15,2013-10-28 16:37:00,
2013-10-28 11:43:00,62.2,38.2,29.70,SSE,157,0.0,0.0,41,0.00,,,0.00,Wunderground v.1.15,2013-10-28 16:43:00,
2013-10-28 11:49:00,62.4,39.0,29.70,SSE,155,0.0,0.0,42,0.00,,,0.00,Wunderground v.1.15,2013-10-28 16:49:00,
2013-10-28 11:54:00,62.5,37.8,29.70,SE,143,0.0,4.0,40,0.00,,,0.00,Wunderground v.1.15,2013-10-28 16:54:00,
2013-10-28 12:00:00,62.9,-99.9,29.70,SE,143,0.0,4.0,255,0.00,,,0.00,Wunderground v.1.15,2013-10-28 17:00:00,
2013-10-28 12:05:00,63.0,36.3,29.70,SE,140,0.0,0.0,37,0.00,,,0.00,Wunderground v.1.15,2013-10-28 17:05:00,
2013-10-28 12:11:00,-999.9,-99.9,29.70,SE,145,0.0,0.0,35,0.00,,,0.00,Wunderground v.1.15,2013-10-28 17:11:00,
2013-10-28 12:16:00,63.9,36.4,29.70,SE,144,0.0,0.0,36,0.00,,,0.00,Wunderground v.1.15,2013-10-28 17:16:00,
2013-10-28 12:22:00,63.7,34.8,29.70,ESE,102,1.0,1.0,34,0.00,,,0.00,Wunderground v.1.15,2013-10-28 17:22:00,
2013-10-28 12:28:00,64.1,34.4,29.70,SE,142,1.0,4.0,33,0.00,,,0.00,Wunderground v.1.15,2013-10-28 17:28:00,
2013-10-28 12:33:00,64.2,34.5,29.69,SE,129,1.0,4.0,33,0.00,,,0.00,Wunderground v.1.15,2013-10-28 17:33:00,
2013-10-28 12:39:00,64.6,34.8,29.69,SE,142,1.0,4.0,33,0.00,,,0.00,Wunderground v.1.15,2013-10-28 17:39:00,
2013-10-28 12:44:00,65.0,35.2,29.69,NE,47,0.0,3.0,33,0.00,,,0.00,Wunderground v.1.15,2013-10-28 17:44:00,
2013-10-28 12:50:00,65.3,33.9,29.69,NE,42,0.0,3.0,31,0.00,,,0.00,Wunderground v.1.15,2013-10-28 17:50:00,
2013-10-28 12:56:00,65.5,34.0,29.69,East,81,0.0,4.0,31,0.00,,,0.00,Wunderground v.1.15,2013-10-28 17:56:00,
2013-10-28 13:01:00,65.3,33.0,29.68,ENE,61,1.0,1.0,30,0.00,,,0.00,Wunderground v.1.15,2013-10-28 18:01:00,
2013-10-28 13:06:00,65.3,33.9,29.68,East,80,1.0,5.0,31,0.00,,,0.00,Wunderground v.1.15,2013-10-28 18:06:00,
2013-10-28 13:11:00,65.4,34.8,29.68,NE,42,1.0,1.0,32,0.00,,,0.00,Wunderground v.1.15,2013-10-28 18:11:00,
2013-10-28 13:17:00,65.8,34.3,29.68,ENE,57,1.0,5.0,31,0.00,,,0.00,Wunderground v.1.15,2013-10-28 18:17:00,
2013-10-28 13:23:00,66.3,34.7,29.67,ENE,71,1.0,1.0,31,0.00,,,0.00,Wunderground v.1.15,2013-10-28 18:23:00,
2013-10-28 13:28:00,66.8,35.2,29.67,ENE,62,0.0,4.0,31,0.00,,,0.00,Wunderground v.1.15,2013-10-28 18:28:00,
2013-10-28 13:34:00,67.1,35.4,29.67,NE,56,0.0,2.0,31,0.00,,,0.00,Wunderground v.1.15,2013-10-28 18:34:00,
2013-10-28 13:39:00,66.9,33.6,29.67,ENE,63,1.0,2.0,29,0.00,,,0.00,Wunderground v.1.15,2013-10-28 18:39:00,
2013-10-28 13:45:00,66.9,34.4,29.66,NE,42,2.0,2.0,30,0.00,,,0.00,Wunderground v.1.15,2013-10-28 18:45:00,
2013-10-28 13:51:00,66.9,34.4,29.66,East,93,1.0,1.0,30,0.00,,,0.00,Wunderground v.1.15,2013-10-28 18:51:00,
2013-10-28 13:56:00,-999.9,-99.9,29.66,ENE,74,1.0,3.0,30,0.00,,,0.00,Wunderground v.1.15,2013-10-28 18:56:00,
2013-10-28 14:02:00,-999.9,-99.9,29.66,SE,126,1.0,5.0,29,0.00,,,0.00,Wunderground v.1.15,2013-10-28 19:02:00,
2013-10-28 14:07:00,67.5,34.1,29.66,ENE,74,2.0,6.0,29,0.00,,,0.00,Wunderground v.1.15,2013-10-28 19:07:00,
2013-10-28 14:14:00,67.4,33.1,29.66,ENE,64,2.0,7.0,28,0.00,,,0.00,Wunderground v.1.15,2013-10-28 19:14:00,
2013-10-28 14:20:00,67.4,34.0,29.66,ENE,76,1.0,7.0,29,0.00,,,0.00,Wunderground v.1.15,2013-10-28 19:20:00,
2013-10-28 14:25:00,67.4,33.1,29.66,ESE,110,1.0,12.0,28,0.00,,,0.00,Wunderground v.1.15,2013-10-28 19:25:00,
2013-10-28 14:31:00,67.2,33.8,29.66,SE,141,1.0,1.0,29,0.00,,,0.00,Wunderground v.1.15,2013-10-28 19:31:00,
2013-10-28 14:36:00,67.5,34.1,29.66,ENE,63,0.0,3.0,29,0.00,,,0.00,Wunderground v.1.15,2013-10-28 19:36:00,
2013-10-28 14:42:00,67.8,34.4,29.66,North,360,1.0,1.0,29,0.00,,,0.00,Wunderground v.1.15,2013-10-28 19:42:00,
2013-10-28 14:48:00,67.9,35.3,29.66,East,101,1.0,1.0,30,0.00,,,0.00,Wunderground v.1.15,2013-10-28 19:48:00,
2013-10-28 14:53:00,68.0,34.5,29.66,NE,44,1.0,1.0,29,0.00,,,0.00,Wunderground v.1.15,2013-10-28 19:53:00,
2013-10-28 14:59:00,68.0,34.5,29.66,ESE,106,1.0,5.0,29,0.00,,,0.00,Wunderground v.1.15,2013-10-28 19:59:00,
2013-10-28 15:05:00,67.8,34.4,29.66,North,360,1.0,2.0,29,0.00,,,0.00,Wunderground v.1.15,2013-10-28 20:05:00,
2013-10-28 15:10:00,67.7,35.1,29.66,East,98,0.0,0.0,30,0.00,,,0.00,Wunderground v.1.15,2013-10-28 20:10:00,
2013-10-28 15:16:00,67.3,34.8,29.66,ENE,62,0.0,3.0,30,0.00,,,0.00,Wunderground v.1.15,2013-10-28 20:16:00,
2013-10-28 15:21:00,66.9,35.3,29.66,East,80,0.0,0.0,31,0.00,,,0.00,Wunderground v.1.15,2013-10-28 20:21:00,
2013-10-28 15:27:00,66.5,34.1,29.66,East,81,0.0,4.0,30,0.00,,,0.00,Wunderground v.1.15,2013-10-28 20:27:00,
2013-10-28 15:33:00,66.2,34.7,29.67,ENE,74,0.0,0.0,31,0.00,,,0.00,Wunderground v.1.15,2013-10-28 20:33:00,
2013-10-28 15:38:00,-999.9,-99.9,29.67,East,92,0.0,1.0,255,0.00,,,0.00,Wunderground v.1.15,2013-10-28 20:38:00,
2013-10-28 15:44:00,65.9,35.2,29.67,East,90,0.0,0.0,32,0.00,,,0.00,Wunderground v.1.15,2013-10-28 20:44:00,
2013-10-28 15:49:00,65.7,35.8,29.67,ESE,116,0.0,0.0,33,0.00,,,0.00,Wunderground v.1.15,2013-10-28 20:49:00,
2013-10-28 15:55:00,65.6,34.9,29.67,SE,135,0.0,0.0,32,0.00,,,0.00,Wunderground v.1.15,2013-10-28 20:55:00,
2013-10-28 16:01:00,65.4,34.8,29.67,ESE,120,0.0,0.0,32,0.00,,,0.00,Wunderground v.1.15,2013-10-28 21:01:00,
2013-10-28 16:06:00,65.4,35.5,29.67,ENE,72,0.0,1.0,33,0.00,,,0.00,Wunderground v.1.15,2013-10-28 21:06:00,
2013-10-28 16:12:00,65.4,34.8,29.67,ESE,113,0.0,5.0,32,0.00,,,0.00,Wunderground v.1.15,2013-10-28 21:12:00,
2013-10-28 16:17:00,65.4,35.5,29.67,NE,42,0.0,8.0,33,0.00,,,0.00,Wunderground v.1.15,2013-10-28 21:17:00,
2013-10-28 16:23:00,65.3,35.4,29.67,East,86,0.0,0.0,33,0.00,,,0.00,Wunderground v.1.15,2013-10-28 21:23:00,
2013-10-28 16:28:00,65.2,36.1,29.67,ESE,112,0.0,0.0,34,0.00,,,0.00,Wunderground v.1.15,2013-10-28 21:28:00,
2013-10-28 16:34:00,65.0,35.2,29.67,SE,136,0.0,0.0,33,0.00,,,0.00,Wunderground v.1.15,2013-10-28 21:34:00,
2013-10-28 16:40:00,64.8,35.8,29.67,SE,132,0.0,0.0,34,0.00,,,0.00,Wunderground v.1.15,2013-10-28 21:40:00,
2013-10-28 16:45:00,64.6,35.6,29.67,ESE,122,0.0,0.0,34,0.00,,,0.00,Wunderground v.1.15,2013-10-28 21:45:00,
2013-10-28 16:51:00,64.3,35.3,29.67,ESE,122,0.0,0.0,34,0.00,,,0.00,Wunderground v.1.15,2013-10-28 21:51:00,
2013-10-28 16:56:00,64.1,35.1,29.67,ESE,122,0.0,0.0,34,0.00,,,0.00,Wunderground v.1.15,2013-10-28 21:56:00,
2013-10-28 17:02:00,63.9,35.0,29.67,ESE,122,0.0,0.0,34,0.00,,,0.00,Wunderground v.1.15,2013-10-28 22:02:00,
2013-10-28 17:08:00,63.7,35.5,29.67,ESE,122,0.0,0.0,35,0.00,,,0.00,Wunderground v.1.15,2013-10-28 22:08:00,
2013-10-28 17:13:00,63.5,35.3,29.67,ESE,121,0.0,2.0,35,0.00,,,0.00,Wunderground v.1.15,2013-10-28 22:13:00,
2013-10-28 17:19:00,63.4,35.2,29.67,ESE,121,0.0,2.0,35,0.00,,,0.00,Wunderground v.1.15,2013-10-28 22:19:00,
2013-10-28 17:24:00,63.3,35.2,29.67,ESE,118,0.0,1.0,35,0.00,,,0.00,Wunderground v.1.15,2013-10-28 22:24:00,
2013-10-28 17:30:00,63.2,35.8,29.67,SE,128,0.0,1.0,36,0.00,,,0.00,Wunderground v.1.15,2013-10-28 22:30:00,
2013-10-28 17:35:00,63.2,35.8,29.67,SE,127,0.0,0.0,36,0.00,,,0.00,Wunderground v.1.15,2013-10-28 22:35:00,
2013-10-28 17:41:00,62.9,35.5,29.67,SE,127,0.0,0.0,36,0.00,,,0.00,Wunderground v.1.15,2013-10-28 22:41:00,
2013-10-28 17:47:00,62.7,35.3,29.67,SE,124,0.0,1.0,36,0.00,,,0.00,Wunderground v.1.15,2013-10-28 22:47:00,
2013-10-28 17:52:00,62.3,35.0,29.67,ESE,121,0.0,0.0,36,0.00,,,0.00,Wunderground v.1.15,2013-10-28 22:52:00,
2013-10-28 17:58:00,62.1,35.5,29.67,ESE,121,0.0,0.0,37,0.00,,,0.00,Wunderground v.1.15,2013-10-28 22:58:00,
2013-10-28 18:04:00,61.7,35.1,29.68,ESE,113,0.0,0.0,37,0.00,,,0.00,Wunderground v.1.15,2013-10-28 23:04:00,
2013-10-28 18:09:00,61.3,35.5,29.68,ESE,113,0.0,0.0,38,0.00,,,0.00,Wunderground v.1.15,2013-10-28 23:09:00,
2013-10-28 18:15:00,60.9,35.1,29.68,ESE,113,0.0,0.0,38,0.00,,,0.00,Wunderground v.1.15,2013-10-28 23:15:00,
2013-10-28 18:20:00,60.5,35.4,29.68,ESE,113,0.0,0.0,39,0.00,,,0.00,Wunderground v.1.15,2013-10-28 23:20:00,
2013-10-28 18:26:00,60.0,35.6,29.68,ESE,113,0.0,0.0,40,0.00,,,0.00,Wunderground v.1.15,2013-10-28 23:26:00,
2013-10-28 18:31:00,59.5,35.8,29.68,ESE,113,0.0,0.0,41,0.00,,,0.00,Wunderground v.1.15,2013-10-28 23:31:00,
2013-10-28 18:36:00,59.1,36.0,29.69,ESE,113,0.0,0.0,42,0.00,,,0.00,Wunderground v.1.15,2013-10-28 23:36:00,
2013-10-28 18:41:00,58.8,35.7,29.69,ESE,113,0.0,0.0,42,0.00,,,0.00,Wunderground v.1.15,2013-10-28 23:41:00,
2013-10-28 18:46:00,58.5,36.1,29.69,ESE,113,0.0,0.0,43,0.00,,,0.00,Wunderground v.1.15,2013-10-28 23:46:00,
2013-10-28 18:52:00,58.0,36.2,29.69,ESE,113,0.0,0.0,44,0.00,,,0.00,Wunderground v.1.15,2013-10-28 23:52:00,
2013-10-28 18:58:00,57.6,35.8,29.69,ESE,113,0.0,0.0,44,0.00,,,0.00,Wunderground v.1.15,2013-10-28 23:58:00,
2013-10-28 19:03:00,57.2,36.0,29.70,ESE,107,0.0,2.0,45,0.00,,,0.00,Wunderground v.1.15,2013-10-29 00:03:00,
2013-10-28 19:09:00,57.0,35.9,29.70,ESE,107,0.0,2.0,45,0.00,,,0.00,Wunderground v.1.15,2013-10-29 00:09:00,
2013-10-28 19:15:00,56.9,36.3,29.70,ESE,107,0.0,0.0,46,0.00,,,0.00,Wunderground v.1.15,2013-10-29 00:15:00,
2013-10-28 19:20:00,56.6,36.0,29.70,ESE,105,0.0,0.0,46,0.00,,,0.00,Wunderground v.1.15,2013-10-29 00:20:00,
2013-10-28 19:26:00,56.3,36.3,29.70,ESE,104,0.0,2.0,47,0.00,,,0.00,Wunderground v.1.15,2013-10-29 00:26:00,
2013-10-28 19:31:00,55.9,36.5,29.70,ESE,103,0.0,0.0,48,0.00,,,0.00,Wunderground v.1.15,2013-10-29 00:31:00,
2013-10-28 19:37:00,55.6,36.2,29.70,ESE,103,0.0,0.0,48,0.00,,,0.00,Wunderground v.1.15,2013-10-29 00:37:00,
2013-10-28 19:42:00,55.5,36.1,29.70,East,101,0.0,0.0,48,0.00,,,0.00,Wunderground v.1.15,2013-10-29 00:42:00,
2013-10-28 19:48:00,55.3,35.9,29.70,East,89,0.0,0.0,48,0.00,,,0.00,Wunderground v.1.15,2013-10-29 00:48:00,
2013-10-28 19:54:00,55.3,35.4,29.71,ENE,71,0.0,3.0,47,0.00,,,0.00,Wunderground v.1.15,2013-10-29 00:54:00,
2013-10-28 19:59:00,55.2,35.3,29.70,ENE,71,0.0,3.0,47,0.00,,,0.00,Wunderground v.1.15,2013-10-29 00:59:00,
2013-10-28 20:05:00,55.1,35.7,29.71,ENE,71,0.0,0.0,48,0.00,,,0.00,Wunderground v.1.15,2013-10-29 01:05:00,
2013-10-28 20:11:00,-90.0,-99.5,29.71,ENE,71,0.0,0.0,47,0.00,,,0.00,Wunderground v.1.15,2013-10-29 01:11:00,
2013-10-28 20:16:00,55.1,35.2,29.71,ENE,71,0.0,0.0,47,0.00,,,0.00,Wunderground v.1.15,2013-10-29 01:16:00,
2013-10-28 20:22:00,55.0,35.1,29.71,ENE,71,0.0,0.0,47,0.00,,,0.00,Wunderground v.1.15,2013-10-29 01:22:00,
2013-10-28 20:27:00,54.9,35.6,29.71,ENE,71,0.0,0.0,48,0.00,,,0.00,Wunderground v.1.15,2013-10-29 01:27:00,
2013-10-28 20:33:00,54.9,35.6,29.71,ENE,71,0.0,0.0,48,0.00,,,0.00,Wunderground v.1.15,2013-10-29 01:33:00,
2013-10-28 20:38:00,54.9,35.6,29.71,ENE,71,0.0,0.0,48,0.00,,,0.00,Wunderground v.1.15,2013-10-29 01:38:00,
2013-10-28 20:45:00,54.8,35.5,29.71,ENE,71,0.0,0.0,48,0.00,,,0.00,Wunderground v.1.15,2013-10-29 01:45:00,
2013-10-28 20:51:00,54.8,35.5,29.72,ENE,71,0.0,0.0,48,0.00,,,0.00,Wunderground v.1.15,2013-10-29 01:51:00,
2013-10-28 20:56:00,54.6,35.3,29.72,ENE,71,0.0,0.0,48,0.00,,,0.00,Wunderground v.1.15,2013-10-29 01:56:00,
2013-10-28 21:02:00,54.3,35.5,29.72,ENE,71,0.0,0.0,49,0.00,,,0.00,Wunderground v.1.15,2013-10-29 02:02:00,
2013-10-28 21:07:00,54.0,35.8,29.72,ENE,71,0.0,0.0,50,0.00,,,0.00,Wunderground v.1.15,2013-10-29 02:07:00,
2013-10-28 21:13:00,53.7,35.5,29.71,ENE,71,0.0,0.0,50,0.00,,,0.00,Wunderground v.1.15,2013-10-29 02:13:00,
2013-10-28 21:19:00,53.5,35.3,29.71,ENE,71,0.0,0.0,50,0.00,,,0.00,Wunderground v.1.15,2013-10-29 02:19:00,
2013-10-28 21:25:00,53.2,35.5,29.72,ENE,71,0.0,0.0,51,0.00,,,0.00,Wunderground v.1.15,2013-10-29 02:25:00,
2013-10-28 21:31:00,53.1,35.4,29.72,ENE,71,0.0,0.0,51,0.00,,,0.00,Wunderground v.1.15,2013-10-29 02:31:00,
2013-10-28 21:36:00,52.9,35.2,29.72,ENE,71,0.0,0.0,51,0.00,,,0.00,Wunderground v.1.15,2013-10-29 02:36:00,
2013-10-28 21:42:00,52.9,35.2,29.72,ENE,71,0.0,0.0,51,0.00,,,0.00,Wunderground v.1.15,2013-10-29 02:42:00,
2013-10-28 21:47:00,53.0,35.3,29.72,ENE,71,0.0,0.0,51,0.00,,,0.00,Wunderground v.1.15,2013-10-29 02:47:00,
2013-10-28 21:53:00,52.8,35.2,29.72,ENE,71,0.0,0.0,51,0.00,,,0.00,Wunderground v.1.15,2013-10-29 02:53:00,
2013-10-28 21:58:00,52.8,35.2,29.72,ENE,71,0.0,0.0,51,0.00,,,0.00,Wunderground v.1.15,2013-10-29 02:58:00,
2013-10-28 22:05:00,52.8,35.2,29.72,ENE,71,0.0,0.0,51,0.00,,,0.00,Wunderground v.1.15,2013-10-29 03:05:00,
2013-10-28 22:11:00,53.2,35.5,29.73,ENE,71,0.0,0.0,51,0.00,,,0.00,Wunderground v.1.15,2013-10-29 03:11:00,
2013-10-28 22:16:00,52.8,35.2,29.73,ENE,72,0.0,0.0,51,0.00,,,0.00,Wunderground v.1.15,2013-10-29 03:16:00,
2013-10-28 22:22:00,52.7,35.1,29.73,ENE,78,0.0,2.0,51,0.00,,,0.00,Wunderground v.1.15,2013-10-29 03:22:00,
2013-10-28 22:27:00,52.7,35.6,29.73,ENE,78,0.0,2.0,52,0.00,,,0.00,Wunderground v.1.15,2013-10-29 03:27:00,
2013-10-28 22:33:00,52.6,35.5,29.73,ENE,78,0.0,0.0,52,0.00,,,0.00,Wunderground v.1.15,2013-10-29 03:33:00,
2013-10-28 22:38:00,52.6,35.5,29.72,ENE,78,0.0,0.0,52,0.00,,,0.00,Wunderground v.1.15,2013-10-29 03:38:00,
2013-10-28 22:44:00,52.7,35.6,29.73,ENE,78,0.0,0.0,52,0.00,,,0.00,Wunderground v.1.15,2013-10-29 03:44:00,
2013-10-28 22:49:00,52.4,35.8,29.73,ENE,73,0.0,1.0,53,0.00,,,0.00,Wunderground v.1.15,2013-10-29 03:49:00,
2013-10-28 22:55:00,53.0,-99.9,29.72,ENE,73,0.0,0.0,255,0.00,,,0.00,Wunderground v.1.15,2013-10-29 03:55:00,
2013-10-28 23:01:00,52.6,35.5,29.73,ENE,74,0.0,0.0,52,0.00,,,0.00,Wunderground v.1.15,2013-10-29 04:01:00,
2013-10-28 23:02:00,52.5,35.8,29.73,ENE,63,0.0,0.0,53,0.00,,,0.00,Wunderground v.1.15,2013-10-29 04:02:00,
2013-10-28 23:03:00,52.5,35.4,29.73,ENE,73,0.0,1.0,52,0.00,,,0.00,Wunderground v.1.15,2013-10-29 04:03:00,
2013-10-28 23:04:00,52.5,35.8,29.73,ENE,73,0.0,1.0,53,0.00,,,0.00,Wunderground v.1.15,2013-10-29 04:04:00,
2013-10-28 23:06:00,52.4,36.2,29.73,ENE,74,0.0,1.0,54,0.00,,,0.00,Wunderground v.1.15,2013-10-29 04:06:00,
2013-10-28 23:11:00,52.3,35.7,29.72,ENE,74,0.0,0.0,53,0.00,,,0.00,Wunderground v.1.15,2013-10-29 04:11:00,
2013-10-28 23:17:00,52.2,36.0,29.73,ENE,74,0.0,0.0,54,0.00,,,0.00,Wunderground v.1.15,2013-10-29 04:17:00,
2013-10-28 23:22:00,52.1,35.9,29.73,ENE,76,0.0,0.0,54,0.00,,,0.00,Wunderground v.1.15,2013-10-29 04:22:00,
2013-10-28 23:28:00,51.9,36.2,29.73,ENE,76,0.0,0.0,55,0.00,,,0.00,Wunderground v.1.15,2013-10-29 04:28:00,
2013-10-28 23:34:00,51.8,36.1,29.73,ENE,76,0.0,0.0,55,0.00,,,0.00,Wunderground v.1.15,2013-10-29 04:34:00,
2013-10-28 23:39:00,51.6,35.9,29.72,ENE,76,0.0,0.0,55,0.00,,,0.00,Wunderground v.1.15,2013-10-29 04:39:00,
2013-10-28 23:45:00,51.5,35.9,29.73,ENE,76,0.0,0.0,55,0.00,,,0.00,Wunderground v.1.15,2013-10-29 04:45:00,
2013-10-28 23:50:00,51.3,36.1,29.73,ENE,76,0.0,0.0,56,0.00,,,0.00,Wunderground v.1.15,2013-10-29 04:50:00,
2013-10-28 23:56:00,51.0,36.3,29.73,ENE,76,0.0,0.0,57,0.00,,,0.00,Wunderground v.1.15,2013-10-29 04:56:00,